Location: ????????
(37.6846°N, 24.0673°E)
Time: 11:50:45
(UTC+00:00)

Resurs 1-4 Rocket - Pass Details

Date: 14 July 2020
Orbit: 800 x 814 km, 98.6° (Epoch: 09 August)

Event Time Altitude Azimuth Distance (km) Brightness Sun altitude
Rises 01:24:10 0° 354° (N) 3,342 5.9 -17.9°
Reaches altitude 10° 01:27:26 10° 333° (NNW) 2,403 4.8 -17.5°
Maximum altitude 01:30:27 16° 298° (WNW) 2,029 4.0 -17.0°
Enters shadow 01:32:21 13° 274° (W) 2,179 4.0 -16.8°
